Weather in Promyshlennaya

Russia / Kemerovo Oblast     54°54′59″N   85°38′15″E
temp.,
°C
wind,
m/s
gust,
m/s
humid.,
%
clouds,
%
prec.,
mm/h
press.,
hPa
HPBL,
m
19 september, sun
sun1901:00+5sw22805 0.0 101123
04:00+4ssw3383100 0.0 101151
07:00+5s3977100 0.0 1011239
10:00+9ssw6960100 0.0 1009923
13:00+13ssw6846100 0.0 10081502
16:00+14ssw6841100 0.0 10051524
19:00+11sse3858100 0.0 1003160
22:00+10w61067100 0.1 1004605
20 september, mon
mon2001:00+7w6118426 1.9 1005562
04:00+6wsw51086100 0.3 1007516
07:00+4sw4109072 0.3 1009359
10:00+7wsw71172100 0.1 10111247
13:00+8wsw91253100 0.3 10111829
16:00+7wsw81168100 0.6 10121430
19:00+5w61282100 1.3 1013924
22:00+4sw4896100 0.4 1012693
21 september, tue
tue2101:00+3sw51097100 1.9 1012692
04:00+3wsw5997100 0.7 1012755
07:00+2wsw6109390 1.3 1013737
10:00+3wsw6982100 0.4 1014955
13:00+4wsw71194100 1.2 1014948
16:00+3w599599 0.4 1015648
19:00+3w61097100 1.1 1016656
22:00+3w61091100 0.2 1018675
22 september, wed
wed2201:00+2w4892100 0.2 1019563
04:00+2sw3789100 0.1 1019314
07:00+1wsw4797100 0.4 1020495
10:00+1wsw5895100 0.8 1021502
13:00+4wsw576793 0.9 10211316
16:00+5wsw466696 0.3 10211151
19:00+4sw2477100 0.6 1021109
22:00+2sw3585100 0.1 1021133
23 september, thu
thu2301:00+2ssw3599100 0.2 1021255
04:00+1ssw3599100 0.4 1020214
07:00+2ssw24100100 0.8 1020177
10:00+2sw3599100 0.8 1021178
13:00+3wsw2399100 1.3 1021213
16:00+3wnw1296100 0.4 1022253
19:00+3n119097 0.4 102310
22:00+1nnw2295100 0.0 102438